Terminal Aerodrome Forecast
Issued by NWS Knoxville/Tri Cities, TN

Home | Current Version | Previous Version | Text Only | Print | Product List | Glossary On
Versions: 1 2 3 4 5 6 7 8 9 10 11 12 13 14 15 16 17 18 19 20 21 22 23 24 25 26 27 28 29 30 31 32
000
FTUS44 KMRX 250600
TAFTYS
TAF
KTYS 250600Z 2506/2606 00000KT P6SM SCT030
     FM250800 00000KT 3SM BR SKC
      TEMPO 2510/2512 1SM BR SCT002
     FM251400 VRB05KT P6SM SCT050=

USA.gov is the U.S. government's official web portal to all federal, state and local government web resources and services.